AAL1958 SABE-SACO

Flight info

Callsign AAL1958
Flight time N/A
Altitude 36000
Route ATOVO4B ATOVO ASISA ASIS1Q
Aircraft B738/M-VGDW/C

Departure

Time 2026-05-03 21:11
Airport Aeroparque Jorge Newbery (SABE)

Arrival

Time N/A
Airport Ingeniero Aeronáutico Ambrosio L.V. Taravella International Airport (SACO)
Time Latitude Longitude Altitude Speed Heading
2026-05-03 20:35 -34.55799 -58.41460 28 ft 0 kts 206°
2026-05-03 20:50 -34.55796 -58.41458 27 ft 2 kts 206°
2026-05-03 20:51 -34.55783 -58.41450 27 ft 2 kts 206°
2026-05-03 20:51 -34.55772 -58.41437 27 ft 2 kts 248°
2026-05-03 20:51 -34.55770 -58.41419 27 ft 2 kts 283°
2026-05-03 20:51 -34.55773 -58.41410 27 ft 1 kts 302°
2026-05-03 20:52 -34.55777 -58.41404 27 ft 0 kts 303°
2026-05-03 20:54 -34.55783 -58.41602 27 ft 20 kts 161°
2026-05-03 20:54 -34.55856 -58.41457 27 ft 24 kts 115°
2026-05-03 20:55 -34.55940 -58.41269 27 ft 23 kts 124°
2026-05-03 20:55 -34.56041 -58.41112 27 ft 24 kts 127°
2026-05-03 20:55 -34.56142 -58.40939 27 ft 22 kts 120°
2026-05-03 20:55 -34.56187 -58.40786 27 ft 15 kts 126°
2026-05-03 20:56 -34.56239 -58.40703 27 ft 4 kts 126°
2026-05-03 20:56 -34.56241 -58.40700 27 ft 0 kts 126°
2026-05-03 20:57 -34.56268 -58.40651 27 ft 13 kts 122°
2026-05-03 20:57 -34.56289 -58.40610 27 ft 0 kts 122°
2026-05-03 21:00 -34.56290 -58.40609 27 ft 1 kts 122°
2026-05-03 21:00 -34.56310 -58.40578 27 ft 0 kts 131°
2026-05-03 21:02 -34.56311 -58.40577 27 ft 2 kts 133°
2026-05-03 21:02 -34.56337 -58.40547 27 ft 0 kts 137°
2026-05-03 21:04 -34.56338 -58.40546 27 ft 1 kts 137°
2026-05-03 21:05 -34.56388 -58.40490 27 ft 10 kts 137°
2026-05-03 21:05 -34.56441 -58.40432 27 ft 9 kts 137°
2026-05-03 21:05 -34.56489 -58.40390 27 ft 5 kts 163°
2026-05-03 21:05 -34.56491 -58.40389 27 ft 0 kts 169°
2026-05-03 21:09 -34.56508 -58.40390 27 ft 13 kts 192°
2026-05-03 21:09 -34.56540 -58.40463 27 ft 0 kts 293°
2026-05-03 21:10 -34.56483 -58.40575 27 ft 59 kts 306°
2026-05-03 21:11 -34.56059 -58.41345 31 ft 157 kts 305°
2026-05-03 21:11 -34.55395 -58.42522 894 ft 176 kts 306°
2026-05-03 21:11 -34.54614 -58.43581 2016 ft 176 kts 329°
2026-05-03 21:11 -34.53394 -58.43830 2713 ft 195 kts 13°
2026-05-03 21:12 -34.52178 -58.42993 3420 ft 213 kts 37°
2026-05-03 21:12 -34.50908 -58.41925 3940 ft 238 kts 29°
2026-05-03 21:12 -34.49403 -58.40862 4476 ft 260 kts 30°
2026-05-03 21:12 -34.47867 -58.39697 5297 ft 266 kts 31°
2026-05-03 21:13 -34.46209 -58.38724 6083 ft 271 kts 13°
2026-05-03 21:13 -34.44375 -58.38814 6884 ft 272 kts 340°
2026-05-03 21:13 -34.42860 -58.40118 7678 ft 274 kts 308°
2026-05-03 21:13 -34.42049 -58.42107 8907 ft 258 kts 291°
2026-05-03 21:14 -34.41251 -58.43928 10071 ft 245 kts 306°
2026-05-03 21:14 -34.40286 -58.45500 11319 ft 227 kts 303°
2026-05-03 21:14 -34.39473 -58.47025 12349 ft 217 kts 300°
2026-05-03 21:14 -34.38705 -58.48555 13210 ft 214 kts 300°
2026-05-03 21:15 -34.37937 -58.50113 13703 ft 220 kts 299°
2026-05-03 21:15 -34.37138 -58.51751 13878 ft 238 kts 299°
2026-05-03 21:15 -34.36270 -58.53536 14238 ft 256 kts 299°
2026-05-03 21:15 -34.35158 -58.55355 14325 ft 283 kts 314°
2026-05-03 21:16 -34.33430 -58.56632 14427 ft 307 kts 338°
2026-05-03 21:16 -34.31248 -58.57143 14487 ft 328 kts 351°
2026-05-03 21:16 -34.29037 -58.57764 14367 ft 340 kts 322°
2026-05-03 21:16 -34.29239 -58.60166 10932 ft 415 kts 211°
2026-05-03 21:17 -34.31829 -58.59643 9659 ft 384 kts 136°